Location: Montreal
(45.5087°N, 73.5540°W)
Time: 19:01:17
(UTC-04:00)

Envisat - Pass Details

Date: 08 February 2023
Orbit: 763 x 765 km, 98.2° (Epoch: 20 March)

Event Time Altitude Azimuth Distance (km) Brightness Sun altitude
Rises 05:56:05 0° 355° (N) 3,242 6.1 -12.8°
Reaches altitude 10° 06:00:01 10° 324° (NW) 2,310 5.1 -12.1°
Enters shadow 06:01:14 12° 311° (NW) 2,202 4.9 -11.9°
